This is the latest recevied weather packets stored in our database for station/object ALANSN-2. If no packets are shown the sender has not sent any weather packets the latest 10 day(s).
| Time | Temp. | Humidity | Pressure | Rain* | Wind** | Luminosity | Snow |
|---|---|---|---|---|---|---|---|
| 1777455302 | 1.67° C | 98% | 1022.3 hPa | 0 mm | - | 0 W/m² | - |
| 1777455002 | 1.11° C | 98% | 1022.3 hPa | 0 mm | - | 0 W/m² | - |
| 1777454702 | 1.11° C | 98% | 1022.4 hPa | 0 mm | - | 0 W/m² | - |
| 1777454402 | 1.67° C | 98% | 1022.3 hPa | 0 mm | - | 0 W/m² | - |
| 1777453505 | 1.11° C | 97% | 1022.1 hPa | 0 mm | - | 0 W/m² | - |
| 1777451702 | 1.67° C | 96% | 1021.9 hPa | 0 mm | - | 0 W/m² | - |
| 1777451405 | 1.67° C | 96% | 1021.6 hPa | 0 mm | - | 0 W/m² | - |
| 1777450505 | 2.22° C | 95% | 1021.9 hPa | 0 mm | - | 0 W/m² | - |
| 1777449902 | 2.22° C | 95% | 1021.7 hPa | 0 mm | - | 0 W/m² | - |
| 1777449601 | 2.22° C | 95% | 1021.7 hPa | 0 mm | - | 0 W/m² | - |
| 1777449302 | 2.22° C | 94% | 1021.7 hPa | 0 mm | - | 0 W/m² | - |
| 1777448102 | 2.78° C | 93% | 1021.9 hPa | 0 mm | - | 0 W/m² | - |
| 1777447802 | 2.78° C | 92% | 1022 hPa | 0 mm | - | 0 W/m² | - |
| 1777447502 | 2.78° C | 91% | 1021.8 hPa | 0 mm | - | 0 W/m² | - |
| 1777446302 | 3.33° C | 89% | 1021.8 hPa | 0 mm | - | 0 W/m² | - |
| 1777446002 | 3.33° C | 89% | 1021.9 hPa | 0 mm | - | 0 W/m² | - |
| 1777442702 | 4.44° C | 87% | 1021.6 hPa | 0 mm | - | 0 W/m² | - |
| 1777442401 | 4.44° C | 88% | 1021.7 hPa | 0 mm | - | 0 W/m² | - |
| 1777441201 | 4.44° C | 87% | 1021.5 hPa | 0 mm | - | 0 W/m² | - |
| 1777440602 | 4.44° C | 88% | 1021.8 hPa | 0 mm | - | 0 W/m² | - |
| 1777440302 | 4.44° C | 88% | 1022 hPa | 0 mm | - | 0 W/m² | - |
| 1777440002 | 4.44° C | 88% | 1021.9 hPa | 0 mm | - | 0 W/m² | - |
| 1777439701 | 4.44° C | 87% | 1022.2 hPa | 0 mm | - | 0 W/m² | - |
| 1777439402 | 4.44° C | 87% | 1021.9 hPa | 0 mm | - | 0 W/m² | - |
| 1777439101 | 4.44° C | 87% | 1022 hPa | 0 mm | - | 0 W/m² | - |
* Rain latest hour (hover to see other rain measurements)
** Current wind speed in m/s (hover to see current wind gust speed)